Location: Diebersbach
(48.5163°N, 8.0558°E)
Time: 21:30:59
(UTC+00:00)

Cosmos 1242 Rocket - Pass Details

Date: 25 October 2021
Orbit: 444 x 481 km, 81.2° (Epoch: 27 November)

Event Time Altitude Azimuth Distance (km) Brightness Sun altitude
Rises 05:19:47 0° 1° (N) 2,561 6.1 -7.8°
Reaches altitude 10° 05:22:25 10° 21° (NNE) 1,674 5.4 -7.4°
Maximum altitude 05:25:02 18° 66° (ENE) 1,239 5.5 -6.9°
Drops below altitude 10° 05:27:37 10° 112° (ESE) 1,658 6.9 -6.5°
Sets 05:30:12 0° 132° (SE) 2,527 7.4 -6.1°
